Stations météo

réclame
Mon MeteoGroup
Baltasound, Grande-Bretagne (3002): Température de l'air & dewpoint: 23.01.2020 00:00:00 - 29.01.2020 00:00:00 (GMT)Baltasound, Grande-Bretagne (3002): Température de l'air -20cm: 23.01.2020 00:00:00 - 29.01.2020 00:00:00 (GMT)Baltasound, Grande-Bretagne (3002): Vitesse du vent & gusts: 23.01.2020 00:00:00 - 29.01.2020 00:00:00 (GMT)Baltasound, Grande-Bretagne (3002): Direction du vent: 23.01.2020 00:00:00 - 29.01.2020 00:00:00 (GMT)Baltasound, Grande-Bretagne (3002): reduced air pressure: 23.01.2020 00:00:00 - 29.01.2020 00:00:00 (GMT)Baltasound, Grande-Bretagne (3002): visibility: 23.01.2020 00:00:00 - 29.01.2020 00:00:00 (GMT)Baltasound, Grande-Bretagne (3002): Quantités de précipitations: 23.01.2020 00:00:00 - 29.01.2020 00:00:00 (GMT)
Date & Time tt [°C] td [°C] tt -20cm [°C] ff [km/h] ff [knt] fx [km/h] fx [knt] dd ppp [hPa] vv [km] rr [mm]
29.01.2020 00:00:00 0,6 0,3 - 9 5 - - W 984,4 50 0,0
28.01.2020 23:00:00 -0,1 -0,5 - 4 2 - - W 984,2 45 0,0
28.01.2020 22:00:00 0,3 -0,2 - 9 5 - - SW 984,0 50 0,2
28.01.2020 21:00:00 1,1 0,5 - 11 6 - - SW 983,8 50 0,0
28.01.2020 20:00:00 1,7 1,1 - 8 4 - - SW 983,7 50 0,0
28.01.2020 19:00:00 2,8 2,1 - 5 3 - - S 983,6 18 1,8
28.01.2020 18:00:00 3,0 2,1 - 21 11 - - S 983,6 4,5 3,2
28.01.2020 17:00:00 4,0 2,8 - 21 11 - - S 983,0 20 1,0
28.01.2020 16:00:00 4,7 2,9 - 24 13 - - SE 983,0 35 0,2
28.01.2020 15:00:00 3,9 2,4 - 18 10 - - SSE 983,0 24 1,0
28.01.2020 14:00:00 3,4 2,3 - 2 1 - - SE 983,3 22 1,2
28.01.2020 13:00:00 3,1 1,2 - 22 12 50 27 S 984,2 2,0 0,4
28.01.2020 12:00:00 5,4 1,3 - 18 10 - - SSE 983,4 30 0,0
28.01.2020 11:00:00 4,6 1,7 - 15 8 - - S 983,7 28 0,0
28.01.2020 10:00:00 3,7 1,2 - 18 10 - - S 983,5 30 0,0
28.01.2020 09:00:00 2,1 0,0 5,0 13 7 - - S 983,4 30 0,0
28.01.2020 08:00:00 2,2 0,3 - 15 8 - - S 983,3 28 0,0
28.01.2020 07:00:00 2,0 0,1 - 16 9 - - S 983,0 24 0,0
28.01.2020 06:00:00 1,8 0,3 - 15 8 - - S 983,1 29 0,0
28.01.2020 05:00:00 2,1 0,2 - 16 9 - - SSW 983,1 45 0,0
28.01.2020 04:00:00 3,5 1,3 - 26 14 - - SSW 983,0 25 0,0
28.01.2020 03:00:00 3,2 0,9 - 22 12 - - SSW 983,0 30 0,0
28.01.2020 02:00:00 3,0 1,1 - 22 12 - - SSW 982,8 30 0,0
28.01.2020 01:00:00 2,8 0,9 - 22 12 - - SSW 982,8 50 0,0
28.01.2020 00:00:00 2,8 0,9 - 24 13 - - SSW 982,7 45 0,0
27.01.2020 23:00:00 2,2 1,1 - 18 10 - - SW 982,7 45 0,0
27.01.2020 22:00:00 3,1 1,3 - 26 14 46 25 SSW 982,7 45 0,0
27.01.2020 21:00:00 2,7 1,1 - 35 19 48 26 SSW 982,4 35 0,0
27.01.2020 20:00:00 3,2 1,5 - 34 18 57 31 SSW 982,3 45 0,2
27.01.2020 19:00:00 3,1 1,3 - 41 22 55 30 SSW 982,0 50 0,0
27.01.2020 18:00:00 2,8 1,3 - 31 17 46 25 SW 981,7 45 0,2
27.01.2020 17:00:00 3,4 1,8 - 21 11 - - S 981,9 45 0,0
27.01.2020 16:00:00 2,5 1,7 - 16 9 - - SE 982,5 15 1,4
27.01.2020 15:00:00 2,6 1,6 - 21 11 - - SE 982,9 23 2,4
27.01.2020 14:00:00 3,1 0,8 - 29 16 - - S 984,2 35 0,0
27.01.2020 13:00:00 4,0 2,5 - 21 11 54 29 SE 984,9 45 1,0
27.01.2020 12:00:00 3,6 1,7 - 42 23 65 35 S 986,1 15 0,0
27.01.2020 11:00:00 5,8 1,6 - 35 19 52 28 SSE 986,6 30 0,0
27.01.2020 10:00:00 4,6 1,3 - 39 21 55 30 SSE 987,5 4,0 0,0
27.01.2020 09:00:00 5,1 0,7 5,7 37 20 50 27 SSE 988,4 30 0,0
27.01.2020 08:00:00 5,1 -0,2 - 35 19 50 27 SSE 989,4 40 0,0
27.01.2020 07:00:00 5,0 0,4 - 35 19 48 26 SSE 990,1 30 0,0
27.01.2020 06:00:00 4,6 -0,1 - 29 16 - - SSE 990,9 30 0,0
27.01.2020 05:00:00 3,5 0,2 - 21 11 - - S 991,6 35 0,0
27.01.2020 04:00:00 2,5 0,8 - 16 9 - - S 992,2 24 0,0
27.01.2020 03:00:00 1,7 0,2 - 16 9 - - S 992,8 21 0,0
27.01.2020 02:00:00 1,0 -0,6 - 11 6 - - SSW 993,1 27 0,0
27.01.2020 01:00:00 1,1 0,0 - 16 9 - - SW 993,3 22 0,0
27.01.2020 00:00:00 1,6 0,3 - 13 7 - - SSW 993,2 24 0,0
26.01.2020 23:00:00 3,1 1,3 - 21 11 - - SSW 993,3 28 0,0
26.01.2020 22:00:00 2,9 1,0 - 15 8 - - SW 993,1 28 0,0
26.01.2020 21:00:00 3,6 1,2 - 16 9 52 28 SW 992,8 35 0,0
26.01.2020 20:00:00 4,2 2,5 - 15 8 - - SW 992,7 20 0,0
26.01.2020 19:00:00 4,4 2,6 - 15 8 - - SW 992,5 18 0,0
26.01.2020 18:00:00 4,9 2,7 - 18 10 - - SW 992,1 17 0,0
26.01.2020 17:00:00 5,0 3,1 - 15 8 - - SW 991,9 21 0,0
26.01.2020 16:00:00 6,3 4,5 - 18 10 - - WSW 991,7 14 0,2
26.01.2020 15:00:00 6,4 5,0 - 24 13 - - SW 991,4 12 0,8
26.01.2020 14:00:00 7,3 6,6 - 26 14 - - SSW 991,3 7 1,0
26.01.2020 13:00:00 7,5 6,5 - 29 16 46 25 SSW 991,6 8 0,6
26.01.2020 12:00:00 7,9 5,9 - 34 18 50 27 S 991,8 11 0,0
26.01.2020 11:00:00 7,9 5,9 - 35 19 48 26 S 992,1 13 0,0
26.01.2020 10:00:00 7,6 5,9 - 34 18 48 26 S 992,5 13 0,0
26.01.2020 09:00:00 7,2 5,6 5,7 28 15 - - S 992,9 13 0,0
26.01.2020 08:00:00 6,9 5,5 - 26 14 - - S 993,2 12 0,0
26.01.2020 07:00:00 7,3 5,8 - 28 15 - - S 993,6 16 0,0
26.01.2020 06:00:00 7,3 5,7 - 28 15 - - S 994,1 22 0,0
26.01.2020 05:00:00 7,2 6,4 - 28 15 - - S 994,8 14 0,0
26.01.2020 04:00:00 7,3 6,5 - 24 13 - - S 995,6 7 0,0
26.01.2020 03:00:00 7,1 6,0 - 22 12 - - S 996,0 14 0,0
26.01.2020 02:00:00 7,6 6,3 - 26 14 - - S 997,0 12 0,0
26.01.2020 01:00:00 7,5 6,4 - 29 16 - - S 997,7 13 0,0
26.01.2020 00:00:00 7,6 6,3 - 22 12 - - S 998,2 16 0,0
25.01.2020 23:00:00 7,8 6,9 - 28 15 - - SSW 998,5 19 0,0
25.01.2020 22:00:00 7,7 7,1 - 29 16 - - SW 998,9 8 0,2
25.01.2020 21:00:00 7,8 6,9 - 29 16 59 32 SW 998,9 4,5 0,0
25.01.2020 20:00:00 8,7 6,7 - 37 20 57 31 SW 999,0 16 0,0
25.01.2020 19:00:00 8,8 6,8 - 42 23 59 32 SW 998,9 17 0,0
25.01.2020 18:00:00 8,7 6,6 - 44 24 65 35 SW 998,7 17 0,0
25.01.2020 17:00:00 8,7 6,7 - 39 21 67 36 SW 998,5 17 0,0
25.01.2020 16:00:00 8,6 6,6 - 41 22 59 32 SW 998,6 19 0,0
25.01.2020 15:00:00 8,3 6,6 - 44 24 57 31 SW 998,8 19 0,0
25.01.2020 14:00:00 7,9 6,9 - 42 23 63 34 SW 999,3 14 0,0
25.01.2020 13:00:00 7,7 6,6 - 42 23 59 32 SW 999,8 6 0,0
25.01.2020 12:00:00 8,5 6,3 - 41 22 59 32 SW 1000,2 26 0,0
25.01.2020 11:00:00 8,3 6,6 - 41 22 55 30 SW 1000,5 28 0,0
25.01.2020 10:00:00 8,0 6,6 - 34 18 46 25 SW 1000,9 17 0,0
25.01.2020 09:00:00 7,8 6,5 5,4 26 14 - - SSW 1001,3 17 0,0
25.01.2020 08:00:00 7,7 6,5 - 34 18 55 30 SSW 1001,5 22 0,0
25.01.2020 07:00:00 7,6 6,7 - 41 22 61 33 SW 1002,2 23 0,0
25.01.2020 06:00:00 7,7 6,6 - 41 22 55 30 SW 1002,6 28 0,0
25.01.2020 05:00:00 7,6 6,7 - 35 19 50 27 SW 1003,1 9 0,0
25.01.2020 04:00:00 7,2 6,6 - 37 20 50 27 SSW 1003,8 10 0,0
25.01.2020 03:00:00 6,7 6,4 - 35 19 48 26 SSW 1004,6 13 0,2
25.01.2020 02:00:00 6,4 5,9 - 28 15 - - S 1005,7 4,0 0,2
25.01.2020 01:00:00 5,7 5,1 - 21 11 - - S 1007,1 12 0,6
25.01.2020 00:00:00 5,2 4,6 - 16 9 - - S 1008,2 16 0,4
24.01.2020 23:00:00 4,8 3,9 - 15 8 - - SSW 1008,9 9 0,0
24.01.2020 22:00:00 4,5 2,9 - 15 8 - - SSW 1009,4 14 0,0
24.01.2020 21:00:00 5,2 2,4 - 22 12 - - WSW 1009,7 19 0,0
24.01.2020 20:00:00 5,7 2,4 - 24 13 - - WSW 1009,9 17 0,0
24.01.2020 19:00:00 5,6 2,2 - 26 14 - - W 1009,9 17 0,0
24.01.2020 18:00:00 5,2 1,8 - 26 14 50 27 W 1009,9 23 0,0
24.01.2020 17:00:00 4,9 2,3 - 26 14 50 27 W 1010,0 15 0,2
24.01.2020 16:00:00 5,2 2,5 - 28 15 50 27 W 1010,0 12 0,0
24.01.2020 15:00:00 5,8 0,1 - 35 19 55 30 W 1010,1 22 0,0
24.01.2020 14:00:00 5,9 1,2 - 39 21 57 31 W 1009,9 25 0,0
24.01.2020 13:00:00 6,0 1,8 - 41 22 68 37 W 1009,6 19 0,0
24.01.2020 12:00:00 5,2 1,7 - 42 23 65 35 W 1009,6 18 0,0
24.01.2020 11:00:00 5,9 2,2 - 35 19 57 31 W 1009,3 14 0,0
24.01.2020 10:00:00 4,0 1,2 - 52 28 76 41 W 1009,4 17 0,2
24.01.2020 09:00:00 4,9 0,9 5,7 42 23 72 39 W 1009,0 19 0,0
24.01.2020 08:00:00 5,6 0,4 - 46 25 68 37 W 1008,7 17 0,0
24.01.2020 07:00:00 5,3 0,5 - 50 27 70 38 W 1008,4 18 0,2
24.01.2020 06:00:00 5,5 0,7 - 55 30 76 41 W 1008,6 18 0,0
24.01.2020 05:00:00 5,6 1,0 - 46 25 68 37 W 1008,4 18 0,0
24.01.2020 04:00:00 4,9 1,0 - 50 27 68 37 W 1008,5 21 0,0
24.01.2020 03:00:00 4,8 2,4 - 48 26 68 37 W 1009,2 15 0,2
24.01.2020 02:00:00 5,3 2,9 - 37 20 63 34 W 1009,6 15 0,8
24.01.2020 01:00:00 5,8 1,6 - 41 22 55 30 W 1010,4 15 0,0
24.01.2020 00:00:00 4,9 2,3 - 39 21 55 30 WSW 1010,7 13 0,0
23.01.2020 23:00:00 4,5 2,2 - 41 22 68 37 W 1011,1 13 0,2
23.01.2020 22:00:00 5,5 0,5 - 41 22 61 33 W 1011,4 28 0,0
23.01.2020 21:00:00 6,1 2,3 - 37 20 57 31 W 1011,6 14 0,0
23.01.2020 20:00:00 5,8 2,9 - 31 17 63 34 W 1012,0 11 0,0
23.01.2020 19:00:00 6,2 3,2 - 41 22 63 34 W 1012,5 17 0,0
23.01.2020 18:00:00 6,4 3,7 - 37 20 59 32 W 1012,6 14 0,0
23.01.2020 17:00:00 6,3 3,9 - 39 21 55 30 W 1012,0 20 0,0
23.01.2020 16:00:00 6,9 4,2 - 39 21 57 31 WSW 1012,7 15 0,2
23.01.2020 15:00:00 7,3 5,2 - 34 18 54 29 W 1013,0 11 0,2
23.01.2020 14:00:00 7,3 5,2 - 41 22 57 31 W 1013,6 10 0,0
23.01.2020 13:00:00 7,9 6,2 - 41 22 63 34 WSW 1014,2 15 0,0
23.01.2020 12:00:00 7,9 6,0 - 39 21 55 30 W 1015,0 11 0,2
23.01.2020 11:00:00 7,4 6,9 - 31 17 68 37 WNW 1015,3 10 1,2
23.01.2020 10:00:00 9,0 8,4 - 46 25 74 40 WSW 1015,3 7 0,2
23.01.2020 09:00:00 8,9 8,2 5,7 54 29 76 41 WSW 1015,7 4,5 0,0
23.01.2020 08:00:00 8,8 8,1 - 54 29 76 41 WSW 1016,3 3,6 0,2
23.01.2020 07:00:00 8,7 7,9 - 50 27 70 38 WSW 1016,3 6 0,0
23.01.2020 06:00:00 8,5 7,3 - 48 26 70 38 WSW 1017,3 9 0,0
23.01.2020 05:00:00 8,8 7,0 - 48 26 63 34 WSW 1018,3 5 0,0
23.01.2020 04:00:00 8,5 7,6 - 44 24 61 33 WSW 1019,1 4,8 0,0
23.01.2020 03:00:00 8,2 7,5 - 39 21 59 32 SW 1020,2 4,0 0,0
23.01.2020 02:00:00 8,6 6,9 - 41 22 57 31 SW 1021,5 11 0,0
23.01.2020 01:00:00 8,4 7,0 - 48 26 63 34 WSW 1022,1 13 0,0
23.01.2020 00:00:00 8,2 7,0 - 48 26 72 39 WSW 1022,6 16 0,0

tt = Température de l'air
td = dewpoint
tt -20cm = Température de l'air -20cm
ff = Vitesse du vent
fx = gusts
dd = Direction du vent
ppp = reduced air pressure
vv = visibility
rr = Quantités de précipitations

stations d'obs. à proximité